星链-31261 (STARLINK-31261 )

导读 | 星芒AI

STARLINK-31261 是 SpaceX Starlink 卫星互联网项目中的一颗低轨卫星,属于第 6 批次部署的星链卫星之一。该卫星于 2023 年发射,运行在约 550 公里的近地轨道上,旨在为全球用户提供高速互联网服务。作为星链计划的重要组成部分,它支持宽带通信,提升偏远地区的网络覆盖。星链系统由数千颗卫星组成,致力于构建全球无缝连接的通信网络。

基本信息
目录编号:
59084
目录名称:
STARLINK-31261
国际标识:
2024-041L
轨道中心:
EARTH
卫星名称:
星链-31261
卫星全名:
星链-31261 (STARLINK-31261 )
卫星状态:
在轨 (已飞行613 天)
发射日期:
2024-02-29 UTC
国别 :
美国 (US)
星等 :
--
轨道信息
数据来源 国际轨道数据
星历时间: 2025-11-02T02:06:29+0800
1天前
查看轨道信息
半长轴: 6861.184km
偏心率: 0.0002142
轨道倾角: 43.007°
近地点辐角 279.277°
升交点赤经 313.371°
平近点角 80.784°
近地点: 481.579km
远地点: 484.519km
周期: 94.267分钟
每日圈数: 15.275808
详细信息
固有亮度:
5
最大亮度:
0.3
卫星平台:
Starlink v2.0 mini
覆盖范围:
全球
运营商:
太空探索技术公司
运营商所在国:
美国
制造商(研发单位):
太空探索技术公司
制造商所在国:
美国
使用方式:
暂无
卫星简介
星链(Starlink)计划是由太空探索技术公司(SpaceX)提出的一个巨型低轨卫星互联网星座项目,计划在2019年至2024年间在太空搭建由约1.2万颗卫星组成的“星链”网络,其中1584颗将部署在地球上空550千米处的近地轨道,并从2020年开始工作。该卫星仍在工作。
2D轨道图
3D轨道图
轨道高度分析图
轨道倾角分析图
轨道综合分析图
查看轨道综合分析图